Location: Godiavel Galaoual
(15.2485°N, 12.6604°W)
Time: 07:46:48
(UTC+00:00)

Courier 1B - Visible Passes

Search period start: 15 June 2021 00:00
Search period end: 25 June 2021 00:00
Orbit: 962 x 1209 km, 28.3° (Epoch: 15 June)

Date Brightness Start Highest point End Pass type
(mag) Time Alt. Az. Time Alt. Az. Time Alt. Az.
15 Jun 7.5 20:36:21 10° WNW 20:43:16 85° SSW 20:46:42 31° ESE visible
15 Jun 9.6 22:31:56 10° W 22:33:35 16° WSW 22:33:35 16° WSW visible
16 Jun 7.8 19:42:22 10° WNW 19:49:28 74° NNE 19:56:07 10° ESE visible
16 Jun 8.5 21:37:22 10° W 21:43:10 34° SW 21:43:10 34° SW visible
17 Jun 8.1 20:43:02 10° WNW 20:49:42 49° SSW 20:52:47 29° SSE visible
18 Jun 7.8 19:48:51 10° WNW 19:55:57 68° SSW 20:02:25 11° SE visible
18 Jun 9.3 21:45:19 10° WSW 21:49:19 18° SW 21:49:19 18° SW visible
19 Jun 8.9 20:50:20 10° W 20:56:02 27° SSW 20:58:58 20° S visible
20 Jun 8.6 19:55:45 10° W 20:02:18 38° SSW 20:08:30 10° SE visible
21 Jun 9.6 20:59:02 10° WSW 21:02:24 14° SSW 21:05:15 11° S visible
22 Jun 9.4 20:03:27 10° W 20:08:37 21° SSW 20:13:35 10° SSE visible
24 Jun 9.9 20:14:02 10° SW 20:15:01 10° SSW 20:15:59 10° SSW visible
